Location: Commenchon
(49.6411°N, 3.1571°E)
Time: 11:39:53
(UTC+00:00)

Cosmos 1513 Rocket - Pass Details

Date: 15 May 2026
Orbit: 938 x 1008 km, 82.9° (Epoch: 9 June)

Event Time Altitude Azimuth Distance (km) Brightness Sun altitude
Exits shadow 21:15:00 - 189° (S) 2,968 6.6 -13.8°
Reaches altitude 10° 21:15:41 10° 189° (S) 2,711 6.4 -13.9°
Maximum altitude 21:21:54 86° 278° (W) 969 4.5 -14.5°
Drops below altitude 10° 21:28:04 10° 9° (N) 2,684 7.5 -15.0°
Sets 21:30:33 0° 10° (N) 3,626 8.3 -15.3°
